Location: Goleszów
(49.7327°N, 18.7414°E)
Time: 13:09:37
(UTC+01:00)

ISS - Visible Passes

Search period start: 21 November 2017 00:00
Search period end: 01 December 2017 00:00
Orbit: 402 x 407 km, 51.6° (Epoch: 21 November)

Date Brightness Start Highest point End Pass type
(mag) Time Alt. Az. Time Alt. Az. Time Alt. Az.
28 Nov -1.6 18:16:38 10° SSW 18:17:53 19° SSW 18:17:53 19° SSW visible
29 Nov -2.1 17:24:53 10° SSW 17:27:22 20° SE 17:27:47 20° SE visible
29 Nov -0.4 19:00:13 10° WSW 19:00:27 12° WSW 19:00:27 12° WSW visible
30 Nov -1.4 16:33:45 10° SSE 16:35:14 13° SE 16:36:43 10° ESE visible
30 Nov -2.7 18:07:56 10° SW 18:10:17 40° SSW 18:10:17 40° SSW visible
